Content
SEND FEEDBACK

Daily
Averages
Monthly
Summary
United States of America

SAN FRANCISCO, CALIFORNIA


Home > North America > United States > California
Elevation: 128 feet     Latitude: 37 46N     Longitude: 122 26W

WEATHER
 
SELECT A DAY
Number of Records: 187,843;   Date Range: 1/1/95 - 10/30/14
 
SHARE

PRINT THIS DATA

[ ← Previous Day ]
WEATHER ALMANAC - FEBRUARY 4, 2013
[ Next Day → ]
[ °C ]   °F
Weather ElementAverageHighLow
Temperature49 °F54 °F (2:56 pm)46 °F (2:56 am)
Dewpoint44.3 °F46.4 °F (12:28 pm)42.1 °F (9:56 pm)
Humidity84 %90 % (3:56 am)75 % (2:56 pm)
Barometer30.13 in30.19 in (8:56 am)30.09 in (2:56 pm)
Wind Speed8.9 mph18.4 mph (7:44 pm)
Weather ElementAverage
Visibility9.1 mi
Wind DirectionS (183.6 °)

Weather ElementTotal
Precipitation---
Heating Degree Days15 (Base 65)
Averaged from 25 records on February 4, 2013
WEATHER CONDITIONS BREAKOUT
WIND DIRECTION BREAKOUT
WEATHER BY HOUR - FEBRUARY 4, 2013
[ °C ]   °F
Local TimeTemperatureDewpointHumidityBarometerVisibilityWind DirectionWind SpeedGust SpeedPrecipitationEventsConditions
2:56 AM46.0 °F43.0 °F89 %30.17 in10.0 miCalmMostly Cloudy
3:56 AM46.9 °F44.1 °F90 %30.15 in9.0 miSouth (170°)4.6 mphMostly Cloudy
4:56 AM46.0 °F43.0 °F89 %30.15 in9.0 miCalmOvercast
5:56 AM48.0 °F45.0 °F89 %30.15 in10.0 miWest (280°)10.4 mphOvercast
6:56 AM48.0 °F45.0 °F89 %30.16 in7.0 miWNW (290°)10.4 mphOvercast
7:56 AM48.0 °F45.0 °F89 %30.17 in8.0 miNW (310°)8.1 mphOvercast
8:56 AM48.9 °F45.0 °F86 %30.19 in8.0 miCalmOvercast
9:56 AM50.0 °F45.0 °F83 %30.19 in8.0 miCalmOvercast
10:56 AM50.0 °F45.0 °F83 %30.19 in8.0 miCalmOvercast
11:56 AM51.1 °F45.0 °F80 %30.17 in8.0 miNNE (30°)4.6 mphOvercast
12:28 PM51.8 °F46.4 °F82 %30.15 in8.0 miENE (70°)4.6 mphMostly Cloudy
12:56 PM52.0 °F46.0 °F80 %30.14 in8.0 miNE (40°)5.8 mphMostly Cloudy
1:56 PM52.0 °F46.0 °F80 %30.11 in8.0 miNE (40°)4.6 mphMostly Cloudy
2:56 PM54.0 °F46.0 °F75 %30.09 in10.0 miWNW (290°)10.4 mphMostly Cloudy
3:56 PM51.1 °F45.0 °F80 %30.09 in10.0 miWNW (300°)16.1 mphMostly Cloudy
4:56 PM50.0 °F44.6 °F82 %30.09 in10.0 miWest (280°)15.0 mphMostly Cloudy
5:56 PM48.0 °F44.1 °F86 %30.09 in10.0 miWest (280°)8.1 mphMostly Cloudy
6:56 PM48.0 °F44.1 °F86 %30.10 in9.0 miWest (280°)16.1 mphMostly Cloudy
7:44 PM48.2 °F44.6 °F87 %30.10 in10.0 miWest (280°)18.4 mphMostly Cloudy
7:56 PM48.0 °F44.1 °F86 %30.10 in10.0 miWest (270°)18.4 mphScattered Clouds
8:56 PM46.9 °F43.0 °F86 %30.10 in10.0 miWest (280°)16.1 mphMostly Cloudy
9:56 PM48.0 °F42.1 °F80 %30.11 in10.0 miWest (280°)15.0 mphPartly Cloudy
10:56 PM48.0 °F42.1 °F80 %30.12 in10.0 miWest (270°)13.8 mphMostly Cloudy
11:13 PM48.2 °F42.8 °F82 %30.12 in10.0 miWest (280°)9.2 mphMostly Cloudy
11:56 PM48.0 °F42.1 °F80 %30.13 in10.0 miWest (270°)12.7 mphMostly Cloudy
Hourly data recorded from KSFO, located miles away from San Francisco, California







STORIES FROM OUR PARTNERS